Location: Castelbiague
(43.0361°N, 0.9246°E)
Time: 13:30:24
(UTC+00:00)

CZ-2C R/B - Pass Details

Date: 17 June 2021
Orbit: 640 x 704 km, 98.3° (Epoch: 30 July)

Event Time Altitude Azimuth Distance (km) Brightness Sun altitude
Rises 20:39:39 0° 16° (NNE) 3,099 7.6 -9.5°
Reaches altitude 10° 20:41:56 10° 19° (NNE) 2,180 6.7 -9.8°
Maximum altitude 20:46:41 65° 102° (ESE) 776 3.8 -10.4°
Drops below altitude 10° 20:51:24 10° 184° (S) 2,161 5.9 -11.0°
Enters shadow 20:52:56 - 186° (S) 2,776 6.5 -11.2°
